FW4207 Weather Reports


time (UTC)temp
C
wind
direction
speed
KPH
gust
KPH
rain 1hr
cm
rain 24hr
cm
rain mn
cm
humidity
%
barometer
mb
20260903025410 26 226 0.0 3.2 0.00 0.00 0.00 57 1016.4
20260903024351 26 226 0.0 3.2 0.00 0.00 0.00 57 1016.5
20260903023403 27 226 0.0 1.6 0.00 0.00 0.00 57 1016.6
20260903022411 27 225 0.0 0.0 0.00 0.00 0.00 57 1016.6
20260903021357 27 225 0.0 0.0 0.00 0.00 0.00 56 1016.7
20260903020330 27 0 0.0 0.0 0.00 0.00 0.00 56 1016.7
20260903015258 27 225 0.0 1.6 0.00 0.00 0.00 56 1016.5
20260903014235 27 225 0.0 0.0 0.00 0.00 0.00 56 1016.6
20260903013212 28 225 0.0 0.0 0.00 0.00 0.00 56 1016.5
20260903012224 28 225 0.0 1.6 0.00 0.00 0.00 55 1016.5
20260903011150 28 226 0.0 0.0 0.00 0.00 0.00 55 1016.4
20260903010200 28 226 0.0 0.0 0.00 0.00 0.00 55 1016.3
20260903005140 28 226 0.0 0.0 0.00 0.00 0.00 54 1016.3
20260903004154 29 226 0.0 0.0 0.00 0.00 0.00 53 1016.2
20260903003158 29 226 0.0 0.0 0.00 0.00 0.00 52 1016.1
20260903002130 30 225 0.0 4.8 0.00 0.00 0.00 51 1016.0
20260903000019 30 226 0.0 1.6 0.00 0.00 0.00 50 1016.1
20260902234951 31 224 0.0 6.4 0.00 0.00 0.00 49 1015.9
20260902234014 31 227 0.0 6.4 0.00 0.00 0.00 49 1015.9
20260902233022 31 227 0.0 8.0 0.00 0.00 0.00 48 1015.9
20260902231955 31 219 0.0 8.0 0.00 0.00 0.00 47 1015.8
20260902230952 31 224 1.6 9.7 0.00 0.00 0.00 46 1015.8
20260902225934 32 225 0.0 9.7 0.00 0.00 0.00 45 1015.7
20260902223749 32 257 0.0 8.0 0.00 0.00 0.00 44 1015.9
20260902221619 32 286 1.6 12.9 0.00 0.00 0.00 42 1016.0
20260902220605 33 252 1.6 12.9 0.00 0.00 0.00 40 1016.1
20260902214426 33 229 3.2 19.3 0.00 0.00 0.00 39 1016.0
20260902213437 33 201 3.2 14.5 0.00 0.00 0.00 38 1016.1
20260902212452 34 290 3.2 14.5 0.00 0.00 0.00 38 1016.1
20260902210400 35 217 3.2 12.9 0.00 0.00 0.00 37 1016.1
20260902205416 35 276 1.6 12.9 0.00 0.00 0.00 36 1016.1
20260902204404 35 309 3.2 19.3 0.00 0.00 0.00 37 1016.2
20260902203356 35 234 3.2 19.3 0.00 0.00 0.00 35 1016.3
20260902202335 35 279 4.8 16.1 0.00 0.00 0.00 36 1016.4
20260902201334 35 296 3.2 12.9 0.00 0.00 0.00 38 1016.7
20260902200305 35 234 3.2 14.5 0.00 0.00 0.00 37 1016.8
20260902195321 35 205 3.2 14.5 0.00 0.00 0.00 38 1016.9
20260902194318 35 316 3.2 14.5 0.00 0.00 0.00 38 1016.9
20260902193329 34 234 3.2 14.5 0.00 0.00 0.00 39 1017.0
20260902192259 34 215 3.2 14.5 0.00 0.00 0.00 40 1017.0
20260902191227 34 232 4.8 20.9 0.00 0.00 0.00 39 1017.0
20260902185032 33 232 3.2 16.1 0.00 0.00 0.00 39 1017.3
20260902182850 33 207 3.2 11.3 0.00 0.00 0.00 41 1017.6
20260902181822 33 238 3.2 17.7 0.00 0.00 0.00 42 1017.7
20260902180845 32 234 0.0 9.7 0.00 0.00 0.00 43 1017.7
20260902175858 32 274 3.2 9.7 0.00 0.00 0.00 41 1017.9
20260902173816 32 296 3.2 16.1 0.00 0.00 0.00 43 1018.2
20260902172759 32 211 3.2 16.1 0.00 0.00 0.00 43 1018.3
20260902171754 32 194 3.2 14.5 0.00 0.00 0.00 44 1018.4
20260902170819 32 282 3.2 12.9 0.00 0.00 0.00 44 1018.4
20260902165835 32 336 4.8 12.9 0.00 0.00 0.00 43 1018.4
20260902164849 32 311 3.2 12.9 0.00 0.00 0.00 44 1018.5
20260902163832 32 286 3.2 14.5 0.00 0.00 0.00 44 1018.5
20260902162839 31 279 3.2 14.5 0.00 0.00 0.00 45 1018.5
20260902161814 31 223 1.6 12.9 0.00 0.00 0.00 46 1018.5
20260902160810 31 209 3.2 12.9 0.00 0.00 0.00 47 1018.5
20260902155809 31 227 1.6 9.7 0.00 0.00 0.00 48 1018.4
20260902154830 30 254 3.2 11.3 0.00 0.00 0.00 48 1018.5
20260902153817 30 209 3.2 11.3 0.00 0.00 0.00 49 1018.6
20260902152748 30 270 1.6 12.9 0.00 0.00 0.00 50 1018.6
20260902151801 29 201 3.2 12.9 0.00 0.00 0.00 50 1018.7
20260902150808 29 308 3.2 12.9 0.00 0.00 0.00 50 1018.6
20260902145758 28 221 3.2 12.9 0.00 0.00 0.00 50 1018.5
20260902144742 28 35 3.2 11.3 0.00 0.00 0.00 51 1018.6
20260902142648 27 223 1.6 14.5 0.00 0.00 0.00 50 1018.5
20260902140525 26 232 0.0 8.0 0.00 0.00 0.00 49 1018.5
20260902135531 26 355 1.6 12.9 0.00 0.00 0.00 49 1018.4
20260902134509 26 224 1.6 12.9 0.00 0.00 0.00 49 1018.4
20260902133446 25 228 3.2 12.9 0.00 0.00 0.00 49 1018.4
20260902132452 25 0 3.2 14.5 0.00 0.00 0.00 49 1018.4
20260902131423 25 0 1.6 14.5 0.00 0.00 0.00 49 1018.4
20260902130402 24 0 1.6 8.0 0.00 0.00 0.00 49 1018.3
20260902124247 23 0 0.0 11.3 0.00 0.00 0.00 51 1018.3
20260902123229 23 0 0.0 4.8 0.00 0.00 0.00 52 1018.3
20260902122214 23 0 0.0 6.4 0.00 0.00 0.00 52 1018.2
20260902121144 22 0 1.6 8.0 0.00 0.00 0.00 53 1018.2
20260902120205 22 0 1.6 8.0 0.00 0.00 0.00 53 1018.2
20260902115132 22 0 1.6 8.0 0.00 0.00 0.00 54 1018.2
20260902114127 22 0 0.0 6.4 0.00 0.00 0.00 54 1018.1
20260902113151 22 0 0.0 1.6 0.00 0.00 0.00 54 1018.0
20260902105918 22 0 0.0 3.2 0.00 0.00 0.00 54 1017.9
20260902104904 22 0 0.0 6.4 0.00 0.00 0.00 54 1017.9
20260902103857 22 0 0.0 6.4 0.00 0.00 0.00 53 1017.7
20260902102849 22 0 0.0 3.2 0.00 0.00 0.00 53 1017.8
20260902101817 22 0 0.0 1.6 0.00 0.00 0.00 53 1017.9
20260902100838 22 0 0.0 3.2 0.00 0.00 0.00 53 1017.8
20260902095854 22 0 0.0 0.0 0.00 0.00 0.00 54 1017.9
20260902094919 22 0 0.0 4.8 0.00 0.00 0.00 54 1017.9
20260902092743 22 0 0.0 0.0 0.00 0.00 0.00 54 1017.9
20260902091759 22 0 0.0 0.0 0.00 0.00 0.00 54 1017.9
20260902090816 22 0 0.0 0.0 0.00 0.00 0.00 54 1017.9
20260902085811 23 0 0.0 0.0 0.00 0.00 0.00 54 1017.9
20260902084803 23 0 0.0 0.0 0.00 0.00 0.00 54 1017.8
20260902083732 23 0 0.0 0.0 0.00 0.00 0.00 54 1017.7
20260902081522 23 0 0.0 0.0 0.00 0.00 0.00 54 1017.6
20260902080530 23 0 0.0 0.0 0.00 0.00 0.00 54 1017.6
20260902075544 23 0 0.0 0.0 0.00 0.00 0.00 54 1017.5
20260902073416 23 0 0.0 0.0 0.00 0.00 0.00 54 1017.5
20260902072409 23 0 0.0 0.0 0.00 0.00 0.00 55 1017.4
20260902071353 23 0 0.0 0.0 0.00 0.00 0.00 55 1017.4
20260902070355 23 0 0.0 0.0 0.00 0.00 0.00 55 1017.5
20260902065404 23 0 0.0 0.0 0.00 0.00 0.00 55 1017.4
20260902064352 24 0 0.0 0.0 0.00 0.00 0.00 56 1017.5
20260902063350 24 0 0.0 0.0 0.00 0.00 0.00 56 1017.5
20260902062325 24 0 0.0 0.0 0.00 0.00 0.00 56 1017.6
20260902060240 25 0 0.0 0.0 0.00 0.00 0.00 56 1017.5
20260902055247 25 240 0.0 0.0 0.00 0.00 0.00 56 1017.5
20260902054234 25 0 0.0 0.0 0.00 0.00 0.00 56 1017.4
20260902053253 25 212 0.0 6.4 0.00 0.00 0.00 56 1017.3
20260902052254 25 0 0.0 4.8 0.00 0.00 0.00 56 1017.3
20260902051246 25 0 0.0 3.2 0.00 0.00 0.00 56 1017.1
20260902050235 25 0 0.0 0.0 0.00 0.00 0.00 56 1017.1
20260902045230 25 222 0.0 1.6 0.00 0.00 0.00 56 1017.1
20260902044234 25 0 0.0 0.0 0.00 0.00 0.00 56 1017.2
20260902043206 25 0 0.0 1.6 0.00 0.00 0.00 56 1017.2
20260902042216 25 223 0.0 6.4 0.00 0.00 0.00 56 1017.3
20260902041239 25 215 0.0 4.8 0.00 0.00 0.00 56 1017.1
20260902040217 25 217 1.6 8.0 0.00 0.00 0.00 56 1017.1
20260902035226 25 225 1.6 8.0 0.00 0.00 0.00 56 1017.0
20260902034157 25 219 1.6 6.4 0.00 0.00 0.00 56 1017.1
20260902033222 26 217 0.0 4.8 0.00 0.00 0.00 56 1017.2
20260902031029 26 223 0.0 1.6 0.00 0.00 0.00 56 1017.3
20260902030004 26 233 0.0 3.2 0.00 0.00 0.00 57 1017.4